[[{"header":{"parameterUnit":"m.s-1","parameterCategory":1,"la1":30.2992,"la2":30.254,"lo1":-89.0895,"lo2":-89.0443,"dy":0.0025,"dx":0.0025,"nx":19,"ny":19,"refTime":"2026-05-02T03:00:00:Z","depth":0,"parameterNumber":2,"parameterNumberName":"U-component_of_WINDS"},"data":[0,0,0,-1.2417,-1.2422,-1.2654,-1.2655,-1.2971,-1.2974,0,0,0,0,0,0,0,0,0,0,0,-1.2357,-1.236,-1.2416,-1.2422,-1.2654,-1.2655,-1.297,-1.2974,0,0,0,0,0,0,0,0,0,0,0,-1.2356,-1.2359,-1.2362,-1.2423,-1.2654,-1.2655,-1.2969,-1.2788,0,0,0,0,0,0,0,0,0,0,-1.2559,-1.2513,-1.2358,-1.2362,-1.2425,-1.2654,-1.2655,-1.2779,-1.2799,-1.2873,0,-1.2939,0,-1.2961,-1.2996,-1.2997,0,0,0,-1.2416,-1.2497,-1.255,-1.2363,-1.2427,-1.2654,-1.2548,-1.279,-1.2813,-1.29,-1.2943,-1.2955,-1.2967,-1.2998,-1.2999,-1.3442,-1.3445,0,0,-1.2403,-1.2405,-1.2535,-1.2566,-1.2529,-1.254,-1.2555,-1.2804,-1.2852,-1.2944,-1.2962,-1.2972,-1.3,-1.3003,-1.344,-1.3443,0,0,0,-1.2371,-1.2396,-1.2443,-1.2553,-1.2594,-1.2547,-1.2564,-1.2841,-1.2856,-1.2965,-1.2975,-1.3002,-1.3006,-1.3437,-1.3441,-1.3562,0,0,0,-1.2362,-1.2377,-1.2438,-1.2442,-1.2589,-1.272,-1.2596,-1.2839,-1.2867,-1.2974,-1.3002,-1.3009,-1.3435,-1.3439,-1.3553,-1.362,0,0,0,-1.2339,-1.2374,-1.2411,-1.2441,-1.2541,-1.2716,-1.2745,-1.2845,-1.2874,-1.2997,-1.301,-1.3433,-1.3439,-1.3545,-1.3607,-1.3739,0,0,0,-1.2315,-1.2514,-1.2413,-1.264,-1.2539,-1.2787,-1.2743,-1.2929,-1.3048,-1.3004,-1.3435,-1.3441,-1.3543,-1.3599,-1.3731,-1.3853,-1.3903,0,0,-1.2568,-1.2545,-1.2678,-1.2594,-1.2861,-1.2752,-1.3038,-1.3146,-1.3156,-1.3347,-1.3358,-1.3556,-1.3606,-1.3738,-1.4179,-1.4219,0,0,0,-1.2759,-1.2855,-1.2926,-1.3039,-1.3126,-1.3207,-1.3271,-1.3312,-1.3473,-1.3254,-1.3638,-1.3667,-1.3745,-1.3803,-1.3838,-1.3905,-1.3467,-1.3466,-1.3466,-1.3122,-1.3123,-1.3345,-1.3376,-1.3486,-1.3551,-1.3642,-1.3707,-1.3676,-1.3767,-1.3825,-1.4093,-1.4161,-1.4187,-1.4257,-1.3887,-1.3887,-1.3888,-1.3888,-1.3495,-1.3633,-1.3587,-1.3786,-1.3787,-1.3955,-1.4025,-1.3998,-1.4156,-1.4049,-1.4117,-1.4003,-1.423,-1.4292,-1.3897,-1.3896,-1.3895,-1.3894,-1.3893,-1.3735,-1.3802,-1.3847,-1.4012,-1.414,-1.4163,-1.4317,-1.4312,-1.4309,-1.4376,-1.4438,-1.4436,-1.4436,-1.4405,-1.4406,-1.4407,-1.4408,-1.4408,-1.4409,-1.3969,-1.4015,-1.4145,-1.4254,-1.4327,-1.4423,-1.4489,-1.4562,-1.4641,-1.4626,-1.4626,-1.4589,-1.4251,-1.4168,-1.4424,-1.4421,-1.4419,-1.4418,-1.4417,-1.4353,-1.4265,-1.4466,-1.4539,-1.4668,-1.4797,-1.4787,-1.4936,-1.4994,-1.5071,-1.5018,-1.4768,-1.4745,-1.4718,-1.465,-1.5015,-1.5015,-1.5015,-1.5015,-1.4558,-1.4545,-1.475,-1.4868,-1.4983,-1.4995,-1.5225,-1.5279,-1.5321,-1.5358,-1.5304,-1.5211,-1.5184,-1.5177,-1.514,-1.5077,-1.5542,-1.5543,-1.5543,-1.4796,-1.4794,-1.499,-1.5029,-1.5129,-1.5216,-1.5433,-1.5572,-1.5601,-1.5565,-1.5388,-1.5366,-1.5216,-1.5167,-1.513,-1.5073,-1.4956,0,0]},{"header":{"parameterUnit":"m.s-1","parameterCategory":1,"la1":30.2992,"la2":30.254,"lo1":-89.0895,"lo2":-89.0443,"dy":0.0025,"dx":0.0025,"nx":19,"ny":19,"refTime":"2026-05-02T03:00:00:Z","depth":0,"parameterNumber":3,"parameterNumberName":"V-component_of_WINDS"},"data":[0,0,0,-3.1623,-3.1627,-3.1798,-3.1798,-3.2028,-3.2031,0,0,0,0,0,0,0,0,0,0,0,-3.158,-3.1581,-3.1623,-3.1627,-3.1798,-3.1798,-3.2028,-3.2031,0,0,0,0,0,0,0,0,0,0,0,-3.1579,-3.1581,-3.1583,-3.1628,-3.1798,-3.1798,-3.2028,-3.1895,0,0,0,0,0,0,0,0,0,0,-3.1727,-3.1694,-3.158,-3.1583,-3.1629,-3.1797,-3.1799,-3.1888,-3.1903,-3.1956,0,-3.2005,0,-3.2022,-3.2047,-3.2048,0,0,0,-3.1622,-3.1681,-3.1721,-3.1584,-3.163,-3.1797,-3.1719,-3.1896,-3.1913,-3.1976,-3.2009,-3.2017,-3.2025,-3.2048,-3.2049,-3.2374,-3.2375,0,0,-3.1612,-3.1614,-3.1709,-3.1732,-3.1707,-3.1714,-3.1725,-3.1906,-3.1942,-3.2009,-3.2022,-3.2029,-3.205,-3.2052,-3.2372,-3.2374,0,0,0,-3.1589,-3.1608,-3.1643,-3.1723,-3.1753,-3.1719,-3.1731,-3.1934,-3.1945,-3.2024,-3.2032,-3.2051,-3.2054,-3.237,-3.2373,-3.2463,0,0,0,-3.1583,-3.1594,-3.1639,-3.1642,-3.175,-3.1846,-3.1755,-3.1932,-3.1953,-3.2031,-3.2051,-3.2057,-3.2368,-3.2371,-3.2456,-3.2506,0,0,0,-3.1566,-3.1592,-3.1619,-3.1642,-3.1715,-3.1843,-3.1864,-3.1937,-3.1958,-3.2048,-3.2057,-3.2367,-3.2371,-3.245,-3.2496,-3.2592,0,0,0,-3.1549,-3.1697,-3.1621,-3.1789,-3.1714,-3.1896,-3.1863,-3.1999,-3.2086,-3.2053,-3.2368,-3.2372,-3.2448,-3.249,-3.2586,-3.2675,-3.2712,0,0,-3.1737,-3.172,-3.1819,-3.1755,-3.1952,-3.187,-3.208,-3.2159,-3.2165,-3.2304,-3.2311,-3.2458,-3.2495,-3.2591,-3.2914,-3.2944,0,0,0,-3.1879,-3.195,-3.2002,-3.2085,-3.2148,-3.2206,-3.2252,-3.2281,-3.2398,-3.2237,-3.2518,-3.254,-3.2596,-3.2639,-3.2664,-3.2712,-3.2392,-3.2391,-3.2391,-3.2151,-3.215,-3.2314,-3.2334,-3.2415,-3.2459,-3.2525,-3.2571,-3.2548,-3.2614,-3.2656,-3.2852,-3.2902,-3.2921,-3.2972,-3.2701,-3.2702,-3.2702,-3.2702,-3.2428,-3.253,-3.2493,-3.2639,-3.2637,-3.2759,-3.2807,-3.2786,-3.29,-3.2821,-3.287,-3.2786,-3.2953,-3.2998,-3.2709,-3.2708,-3.2707,-3.2706,-3.2706,-3.2608,-3.2657,-3.2688,-3.2807,-3.2899,-3.2913,-3.3024,-3.3018,-3.3013,-3.3062,-3.3106,-3.3105,-3.3104,-3.3083,-3.3083,-3.3084,-3.3085,-3.3085,-3.3086,-3.2783,-3.2816,-3.291,-3.2987,-3.3039,-3.3107,-3.3151,-3.3203,-3.3258,-3.3245,-3.3245,-3.3216,-3.2969,-3.2908,-3.3096,-3.3094,-3.3093,-3.3092,-3.3091,-3.307,-3.3003,-3.3149,-3.3201,-3.3291,-3.3382,-3.3372,-3.3476,-3.3517,-3.3572,-3.3531,-3.3348,-3.3331,-3.3311,-3.3261,-3.3529,-3.3529,-3.3529,-3.3529,-3.3223,-3.3212,-3.3359,-3.3443,-3.3524,-3.3528,-3.3693,-3.3728,-3.3754,-3.3779,-3.3739,-3.3671,-3.3651,-3.3645,-3.3618,-3.3572,-3.3913,-3.3913,-3.3914,-3.34,-3.3396,-3.3538,-3.3562,-3.3631,-3.369,-3.3845,-3.3942,-3.3958,-3.3929,-3.38,-3.3783,-3.3673,-3.3637,-3.3609,-3.3567,-3.3481,0,0]}]]